owner,sensor,date,latitude,longitude,air_temperature,qcFlag 
DISL,ioos:station:DISL:MHPA:1,2013-03-01T00:00:00Z,30.6671,-87.9365,10.83,1111122 
DISL,ioos:station:DISL:MHPA:1,2013-03-01T00:30:00Z,30.6671,-87.9365,10.61,1111122 
DISL,ioos:station:DISL:MHPA:1,2013-03-01T01:00:00Z,30.6671,-87.9365,10.47,1111122 
DISL,ioos:station:DISL:MHPA:1,2013-03-01T01:30:00Z,30.6671,-87.9365,10.23,1111122 
DISL,ioos:station:DISL:MHPA:1,2013-03-01T02:00:00Z,30.6671,-87.9365,10.24,1111122 
DISL,ioos:station:DISL:MHPA:1,2013-03-01T02:30:00Z,30.6671,-87.9365,10.17,1111122 
DISL,ioos:station:DISL:MHPA:1,2013-03-01T03:00:00Z,30.6671,-87.9365,10.01,1111122 
DISL,ioos:station:DISL:MHPA:1,2013-03-01T03:30:00Z,30.6671,-87.9365,9.83,1111122 
DISL,ioos:station:DISL:MHPA:1,2013-03-01T04:00:00Z,30.6671,-87.9365,9.69,1111122 
DISL,ioos:station:DISL:MHPA:1,2013-03-01T04:30:00Z,30.6671,-87.9365,9.7,1111122 
DISL,ioos:station:DISL:MHPA:1,2013-03-01T05:00:00Z,30.6671,-87.9365,9.07,1111122 
DISL,ioos:station:DISL:MHPA:1,2013-03-01T05:30:00Z,30.6671,-87.9365,8.88,1111122 
DISL,ioos:station:DISL:MHPA:1,2013-03-01T06:00:00Z,30.6671,-87.9365,8.89,1111122 
DISL,ioos:station:DISL:MHPA:1,2013-03-01T06:30:00Z,30.6671,-87.9365,8.51,1111122 
DISL,ioos:station:DISL:MHPA:1,2013-03-01T07:00:00Z,30.6671,-87.9365,8.05,1111122 
DISL,ioos:station:DISL:MHPA:1,2013-03-01T07:30:00Z,30.6671,-87.9365,7.46,1111122 
DISL,ioos:station:DISL:MHPA:1,2013-03-01T08:00:00Z,30.6671,-87.9365,7.03,1111122 
DISL,ioos:station:DISL:MHPA:1,2013-03-01T08:30:00Z,30.6671,-87.9365,6.746,1111122 
DISL,ioos:station:DISL:MHPA:1,2013-03-01T09:00:00Z,30.6671,-87.9365,6.408,1111122 
DISL,ioos:station:DISL:MHPA:1,2013-03-01T09:30:00Z,30.6671,-87.9365,6.207,1111122 
DISL,ioos:station:DISL:MHPA:1,2013-03-01T10:00:00Z,30.6671,-87.9365,5.821,1111122 
DISL,ioos:station:DISL:MHPA:1,2013-03-01T10:30:00Z,30.6671,-87.9365,5.877,1111122 
DISL,ioos:station:DISL:MHPA:1,2013-03-01T11:00:00Z,30.6671,-87.9365,5.639,1111122 
DISL,ioos:station:DISL:MHPA:1,2013-03-01T11:30:00Z,30.6671,-87.9365,5.571,1111122 
DISL,ioos:station:DISL:MHPA:1,2013-03-01T12:00:00Z,30.6671,-87.9365,5.524,1111122 
DISL,ioos:station:DISL:MHPA:1,2013-03-01T12:30:00Z,30.6671,-87.9365,5.477,1111122 
DISL,ioos:station:DISL:MHPA:1,2013-03-01T13:00:00Z,30.6671,-87.9365,5.697,1111122 
DISL,ioos:station:DISL:MHPA:1,2013-03-01T13:30:00Z,30.6671,-87.9365,5.993,1111122 
DISL,ioos:station:DISL:MHPA:1,2013-03-01T14:00:00Z,30.6671,-87.9365,6.659,1111122 
DISL,ioos:station:DISL:MHPA:1,2013-03-01T14:30:00Z,30.6671,-87.9365,7.38,1111122 
DISL,ioos:station:DISL:MHPA:1,2013-03-01T15:00:00Z,30.6671,-87.9365,7.42,1111122 
DISL,ioos:station:DISL:MHPA:1,2013-03-01T15:30:00Z,30.6671,-87.9365,7.94,1111122 
DISL,ioos:station:DISL:MHPA:1,2013-03-01T16:00:00Z,30.6671,-87.9365,8.72,1111122 
DISL,ioos:station:DISL:MHPA:1,2013-03-01T16:30:00Z,30.6671,-87.9365,8.75,1111122 
DISL,ioos:station:DISL:MHPA:1,2013-03-01T17:00:00Z,30.6671,-87.9365,9.41,1111122 
DISL,ioos:station:DISL:MHPA:1,2013-03-01T17:30:00Z,30.6671,-87.9365,10.38,1111122 
DISL,ioos:station:DISL:MHPA:1,2013-03-01T18:00:00Z,30.6671,-87.9365,9.96,1111122 
DISL,ioos:station:DISL:MHPA:1,2013-03-01T18:30:00Z,30.6671,-87.9365,10.53,1111122 
DISL,ioos:station:DISL:MHPA:1,2013-03-01T19:00:00Z,30.6671,-87.9365,10.5,1111122 
DISL,ioos:station:DISL:MHPA:1,2013-03-01T19:30:00Z,30.6671,-87.9365,10.44,1111122 
DISL,ioos:station:DISL:MHPA:1,2013-03-01T20:00:00Z,30.6671,-87.9365,10.5,1111122 
DISL,ioos:station:DISL:MHPA:1,2013-03-01T20:30:00Z,30.6671,-87.9365,10.55,1111122 
DISL,ioos:station:DISL:MHPA:1,2013-03-01T21:00:00Z,30.6671,-87.9365,11.01,1111122 
DISL,ioos:station:DISL:MHPA:1,2013-03-01T21:30:00Z,30.6671,-87.9365,11.3,1111122 
DISL,ioos:station:DISL:MHPA:1,2013-03-01T22:00:00Z,30.6671,-87.9365,11.55,1111122 
DISL,ioos:station:DISL:MHPA:1,2013-03-01T22:30:00Z,30.6671,-87.9365,11.96,1111122 
DISL,ioos:station:DISL:MHPA:1,2013-03-01T23:00:00Z,30.6671,-87.9365,12.0,1111122 
DISL,ioos:station:DISL:MHPA:1,2013-03-01T23:30:00Z,30.6671,-87.9365,12.4,1111122 
DISL,ioos:station:DISL:MHPA:1,2013-03-02T00:00:00Z,30.6671,-87.9365,12.08,1111122 
DISL,ioos:station:DISL:MHPA:1,2013-03-02T00:30:00Z,30.6671,-87.9365,11.89,1111122 
DISL,ioos:station:DISL:MHPA:1,2013-03-02T01:00:00Z,30.6671,-87.9365,11.38,1111122 
DISL,ioos:station:DISL:MHPA:1,2013-03-02T01:30:00Z,30.6671,-87.9365,10.92,1111122 
DISL,ioos:station:DISL:MHPA:1,2013-03-02T02:00:00Z,30.6671,-87.9365,10.13,1111122 
DISL,ioos:station:DISL:MHPA:1,2013-03-02T02:30:00Z,30.6671,-87.9365,9.54,1111122 
DISL,ioos:station:DISL:MHPA:1,2013-03-02T03:00:00Z,30.6671,-87.9365,8.74,1111122 
DISL,ioos:station:DISL:MHPA:1,2013-03-02T03:30:00Z,30.6671,-87.9365,8.01,1111122 
DISL,ioos:station:DISL:MHPA:1,2013-03-02T04:00:00Z,30.6671,-87.9365,7.13,1111122 
DISL,ioos:station:DISL:MHPA:1,2013-03-02T04:30:00Z,30.6671,-87.9365,6.506,1111122 
DISL,ioos:station:DISL:MHPA:1,2013-03-02T05:00:00Z,30.6671,-87.9365,6.092,1111122 
DISL,ioos:station:DISL:MHPA:1,2013-03-02T05:30:00Z,30.6671,-87.9365,5.678,1111122 
DISL,ioos:station:DISL:MHPA:1,2013-03-02T06:00:00Z,30.6671,-87.9365,5.428,1111122 
DISL,ioos:station:DISL:MHPA:1,2013-03-02T06:30:00Z,30.6671,-87.9365,5.112,1111122 
DISL,ioos:station:DISL:MHPA:1,2013-03-02T07:00:00Z,30.6671,-87.9365,4.9,1111122 
DISL,ioos:station:DISL:MHPA:1,2013-03-02T07:30:00Z,30.6671,-87.9365,4.717,1111122 
DISL,ioos:station:DISL:MHPA:1,2013-03-02T08:00:00Z,30.6671,-87.9365,4.431,1111122 
DISL,ioos:station:DISL:MHPA:1,2013-03-02T08:30:00Z,30.6671,-87.9365,4.135,1111122 
DISL,ioos:station:DISL:MHPA:1,2013-03-02T09:00:00Z,30.6671,-87.9365,3.887,1111122 
DISL,ioos:station:DISL:MHPA:1,2013-03-02T09:30:00Z,30.6671,-87.9365,3.629,1111122 
DISL,ioos:station:DISL:MHPA:1,2013-03-02T10:00:00Z,30.6671,-87.9365,3.106,1111122 
DISL,ioos:station:DISL:MHPA:1,2013-03-02T10:30:00Z,30.6671,-87.9365,2.742,1111122 
DISL,ioos:station:DISL:MHPA:1,2013-03-02T11:00:00Z,30.6671,-87.9365,2.523,1111122 
DISL,ioos:station:DISL:MHPA:1,2013-03-02T11:30:00Z,30.6671,-87.9365,2.378,1111122 
DISL,ioos:station:DISL:MHPA:1,2013-03-02T12:00:00Z,30.6671,-87.9365,2.048,1111122 
DISL,ioos:station:DISL:MHPA:1,2013-03-02T12:30:00Z,30.6671,-87.9365,2.027,1111122 
DISL,ioos:station:DISL:MHPA:1,2013-03-02T13:00:00Z,30.6671,-87.9365,2.037,1111122 
DISL,ioos:station:DISL:MHPA:1,2013-03-02T13:30:00Z,30.6671,-87.9365,2.702,1111122 
DISL,ioos:station:DISL:MHPA:1,2013-03-02T14:00:00Z,30.6671,-87.9365,3.332,1111122 
DISL,ioos:station:DISL:MHPA:1,2013-03-02T14:30:00Z,30.6671,-87.9365,3.743,1111122 
DISL,ioos:station:DISL:MHPA:1,2013-03-02T15:00:00Z,30.6671,-87.9365,4.499,1111122 
DISL,ioos:station:DISL:MHPA:1,2013-03-02T15:30:00Z,30.6671,-87.9365,4.978,1111122 
DISL,ioos:station:DISL:MHPA:1,2013-03-02T16:00:00Z,30.6671,-87.9365,5.755,1111122 
DISL,ioos:station:DISL:MHPA:1,2013-03-02T16:30:00Z,30.6671,-87.9365,6.082,1111122 
DISL,ioos:station:DISL:MHPA:1,2013-03-02T17:00:00Z,30.6671,-87.9365,6.582,1111122 
DISL,ioos:station:DISL:MHPA:1,2013-03-02T17:30:00Z,30.6671,-87.9365,7.22,1111122 
DISL,ioos:station:DISL:MHPA:1,2013-03-02T18:00:00Z,30.6671,-87.9365,7.12,1111122 
DISL,ioos:station:DISL:MHPA:1,2013-03-02T18:30:00Z,30.6671,-87.9365,7.36,1111122 
DISL,ioos:station:DISL:MHPA:1,2013-03-02T19:00:00Z,30.6671,-87.9365,7.09,1111122 
DISL,ioos:station:DISL:MHPA:1,2013-03-02T19:30:00Z,30.6671,-87.9365,6.833,1111122 
DISL,ioos:station:DISL:MHPA:1,2013-03-02T20:00:00Z,30.6671,-87.9365,6.969,1111122 
DISL,ioos:station:DISL:MHPA:1,2013-03-02T20:30:00Z,30.6671,-87.9365,6.872,1111122 
DISL,ioos:station:DISL:MHPA:1,2013-03-02T21:00:00Z,30.6671,-87.9365,6.776,1111122 
DISL,ioos:station:DISL:MHPA:1,2013-03-02T21:30:00Z,30.6671,-87.9365,6.361,1111122 
DISL,ioos:station:DISL:MHPA:1,2013-03-02T22:00:00Z,30.6671,-87.9365,6.101,1111122 
DISL,ioos:station:DISL:MHPA:1,2013-03-02T22:30:00Z,30.6671,-87.9365,5.813,1111122 
DISL,ioos:station:DISL:MHPA:1,2013-03-02T23:00:00Z,30.6671,-87.9365,5.669,1111122 
DISL,ioos:station:DISL:MHPA:1,2013-03-02T23:30:00Z,30.6671,-87.9365,5.496,1111122 
DISL,ioos:station:DISL:MHPA:1,2013-03-03T00:00:00Z,30.6671,-87.9365,5.352,1111122 
DISL,ioos:station:DISL:MHPA:1,2013-03-03T00:30:00Z,30.6671,-87.9365,5.208,1111122 
DISL,ioos:station:DISL:MHPA:1,2013-03-03T01:00:00Z,30.6671,-87.9365,4.949,1111122 
DISL,ioos:station:DISL:MHPA:1,2013-03-03T01:30:00Z,30.6671,-87.9365,4.854,1111122 
DISL,ioos:station:DISL:MHPA:1,2013-03-03T02:00:00Z,30.6671,-87.9365,4.729,1111122 
DISL,ioos:station:DISL:MHPA:1,2013-03-03T02:30:00Z,30.6671,-87.9365,4.481,1111122 
DISL,ioos:station:DISL:MHPA:1,2013-03-03T03:00:00Z,30.6671,-87.9365,4.385,1111122 
DISL,ioos:station:DISL:MHPA:1,2013-03-03T03:30:00Z,30.6671,-87.9365,4.308,1111122 
DISL,ioos:station:DISL:MHPA:1,2013-03-03T04:00:00Z,30.6671,-87.9365,4.27,1111122 
DISL,ioos:station:DISL:MHPA:1,2013-03-03T04:30:00Z,30.6671,-87.9365,4.003,1111122 
DISL,ioos:station:DISL:MHPA:1,2013-03-03T05:00:00Z,30.6671,-87.9365,3.908,1111122 
DISL,ioos:station:DISL:MHPA:1,2013-03-03T05:30:00Z,30.6671,-87.9365,3.774,1111122 
DISL,ioos:station:DISL:MHPA:1,2013-03-03T06:00:00Z,30.6671,-87.9365,3.536,1111122 
DISL,ioos:station:DISL:MHPA:1,2013-03-03T06:30:00Z,30.6671,-87.9365,3.392,1111122 
DISL,ioos:station:DISL:MHPA:1,2013-03-03T07:00:00Z,30.6671,-87.9365,3.097,1111122 
DISL,ioos:station:DISL:MHPA:1,2013-03-03T07:30:00Z,30.6671,-87.9365,3.01,1111122 
DISL,ioos:station:DISL:MHPA:1,2013-03-03T08:00:00Z,30.6671,-87.9365,3.019,1111122 
DISL,ioos:station:DISL:MHPA:1,2013-03-03T08:30:00Z,30.6671,-87.9365,2.902,1111122 
DISL,ioos:station:DISL:MHPA:1,2013-03-03T09:00:00Z,30.6671,-87.9365,2.704,1111122 
DISL,ioos:station:DISL:MHPA:1,2013-03-03T09:30:00Z,30.6671,-87.9365,2.448,1111122 
DISL,ioos:station:DISL:MHPA:1,2013-03-03T10:00:00Z,30.6671,-87.9365,2.23,1111122 
DISL,ioos:station:DISL:MHPA:1,2013-03-03T10:30:00Z,30.6671,-87.9365,1.886,1111122 
DISL,ioos:station:DISL:MHPA:1,2013-03-03T11:00:00Z,30.6671,-87.9365,1.619,1111122 
DISL,ioos:station:DISL:MHPA:1,2013-03-03T11:30:00Z,30.6671,-87.9365,1.239,1111122 
DISL,ioos:station:DISL:MHPA:1,2013-03-03T12:00:00Z,30.6671,-87.9365,1.06,1111122 
DISL,ioos:station:DISL:MHPA:1,2013-03-03T12:30:00Z,30.6671,-87.9365,0.574,1111122 
DISL,ioos:station:DISL:MHPA:1,2013-03-03T13:00:00Z,30.6671,-87.9365,0.661,1111122 
DISL,ioos:station:DISL:MHPA:1,2013-03-03T13:30:00Z,30.6671,-87.9365,0.86,1111122 
DISL,ioos:station:DISL:MHPA:1,2013-03-03T14:00:00Z,30.6671,-87.9365,1.478,1111122 
DISL,ioos:station:DISL:MHPA:1,2013-03-03T14:30:00Z,30.6671,-87.9365,2.37,1111122 
DISL,ioos:station:DISL:MHPA:1,2013-03-03T15:00:00Z,30.6671,-87.9365,2.496,1111122 
DISL,ioos:station:DISL:MHPA:1,2013-03-03T15:30:00Z,30.6671,-87.9365,3.039,1111122 
DISL,ioos:station:DISL:MHPA:1,2013-03-03T16:00:00Z,30.6671,-87.9365,3.288,1111122 
DISL,ioos:station:DISL:MHPA:1,2013-03-03T16:30:00Z,30.6671,-87.9365,3.755,1111122 
DISL,ioos:station:DISL:MHPA:1,2013-03-03T17:00:00Z,30.6671,-87.9365,4.662,1111122 
DISL,ioos:station:DISL:MHPA:1,2013-03-03T17:30:00Z,30.6671,-87.9365,5.304,1111122 
DISL,ioos:station:DISL:MHPA:1,2013-03-03T18:00:00Z,30.6671,-87.9365,6.11,1111122 
DISL,ioos:station:DISL:MHPA:1,2013-03-03T18:30:00Z,30.6671,-87.9365,6.901,1111122 
DISL,ioos:station:DISL:MHPA:1,2013-03-03T19:00:00Z,30.6671,-87.9365,7.71,1111122 
DISL,ioos:station:DISL:MHPA:1,2013-03-03T19:30:00Z,30.6671,-87.9365,8.68,1111122 
DISL,ioos:station:DISL:MHPA:1,2013-03-03T20:00:00Z,30.6671,-87.9365,8.88,1111122 
DISL,ioos:station:DISL:MHPA:1,2013-03-03T20:30:00Z,30.6671,-87.9365,9.72,1111122 
DISL,ioos:station:DISL:MHPA:1,2013-03-03T21:00:00Z,30.6671,-87.9365,10.34,1111122 
DISL,ioos:station:DISL:MHPA:1,2013-03-03T21:30:00Z,30.6671,-87.9365,10.67,1111122 
DISL,ioos:station:DISL:MHPA:1,2013-03-03T22:00:00Z,30.6671,-87.9365,11.12,1111122 
DISL,ioos:station:DISL:MHPA:1,2013-03-03T22:30:00Z,30.6671,-87.9365,11.31,1111122 
DISL,ioos:station:DISL:MHPA:1,2013-03-03T23:00:00Z,30.6671,-87.9365,11.47,1111122 
DISL,ioos:station:DISL:MHPA:1,2013-03-03T23:30:00Z,30.6671,-87.9365,11.37,1111122 
DISL,ioos:station:DISL:MHPA:1,2013-03-04T00:00:00Z,30.6671,-87.9365,9.46,1111122 
DISL,ioos:station:DISL:MHPA:1,2013-03-04T00:30:00Z,30.6671,-87.9365,9.31,1111122 
DISL,ioos:station:DISL:MHPA:1,2013-03-04T01:00:00Z,30.6671,-87.9365,8.6,1111122 
DISL,ioos:station:DISL:MHPA:1,2013-03-04T01:30:00Z,30.6671,-87.9365,7.98,1111122 
DISL,ioos:station:DISL:MHPA:1,2013-03-04T02:00:00Z,30.6671,-87.9365,7.71,1111122 
DISL,ioos:station:DISL:MHPA:1,2013-03-04T02:30:00Z,30.6671,-87.9365,7.25,1111122 
DISL,ioos:station:DISL:MHPA:1,2013-03-04T03:00:00Z,30.6671,-87.9365,7.38,1111122 
DISL,ioos:station:DISL:MHPA:1,2013-03-04T03:30:00Z,30.6671,-87.9365,7.26,1111122 
DISL,ioos:station:DISL:MHPA:1,2013-03-04T04:00:00Z,30.6671,-87.9365,7.14,1111122 
DISL,ioos:station:DISL:MHPA:1,2013-03-04T04:30:00Z,30.6671,-87.9365,6.774,1111122 
DISL,ioos:station:DISL:MHPA:1,2013-03-04T05:00:00Z,30.6671,-87.9365,6.599,1111122 
DISL,ioos:station:DISL:MHPA:1,2013-03-04T05:30:00Z,30.6671,-87.9365,6.668,1111122 
DISL,ioos:station:DISL:MHPA:1,2013-03-04T06:00:00Z,30.6671,-87.9365,6.293,1111122 
DISL,ioos:station:DISL:MHPA:1,2013-03-04T06:30:00Z,30.6671,-87.9365,5.868,1111122 
DISL,ioos:station:DISL:MHPA:1,2013-03-04T07:00:00Z,30.6671,-87.9365,5.504,1111122 
DISL,ioos:station:DISL:MHPA:1,2013-03-04T07:30:00Z,30.6671,-87.9365,5.839,1111122 
DISL,ioos:station:DISL:MHPA:1,2013-03-04T08:00:00Z,30.6671,-87.9365,5.533,1111122 
DISL,ioos:station:DISL:MHPA:1,2013-03-04T08:30:00Z,30.6671,-87.9365,5.436,1111122 
DISL,ioos:station:DISL:MHPA:1,2013-03-04T09:00:00Z,30.6671,-87.9365,5.58,1111122 
DISL,ioos:station:DISL:MHPA:1,2013-03-04T09:30:00Z,30.6671,-87.9365,5.071,1111122 
DISL,ioos:station:DISL:MHPA:1,2013-03-04T10:00:00Z,30.6671,-87.9365,4.83,1111122 
DISL,ioos:station:DISL:MHPA:1,2013-03-04T10:30:00Z,30.6671,-87.9365,4.832,1111122 
DISL,ioos:station:DISL:MHPA:1,2013-03-04T11:00:00Z,30.6671,-87.9365,4.679,1111122 
DISL,ioos:station:DISL:MHPA:1,2013-03-04T11:30:00Z,30.6671,-87.9365,5.157,1111122 
DISL,ioos:station:DISL:MHPA:1,2013-03-04T12:00:00Z,30.6671,-87.9365,5.187,1111122 
DISL,ioos:station:DISL:MHPA:1,2013-03-04T12:30:00Z,30.6671,-87.9365,4.918,1111122 
DISL,ioos:station:DISL:MHPA:1,2013-03-04T13:00:00Z,30.6671,-87.9365,6.936,1111122 
DISL,ioos:station:DISL:MHPA:1,2013-03-04T13:30:00Z,30.6671,-87.9365,8.37,1111122 
DISL,ioos:station:DISL:MHPA:1,2013-03-04T14:00:00Z,30.6671,-87.9365,9.88,1111122 
DISL,ioos:station:DISL:MHPA:1,2013-03-04T14:30:00Z,30.6671,-87.9365,11.18,1111122 
DISL,ioos:station:DISL:MHPA:1,2013-03-04T15:00:00Z,30.6671,-87.9365,12.13,1111122 
DISL,ioos:station:DISL:MHPA:1,2013-03-04T15:30:00Z,30.6671,-87.9365,12.77,1111122 
DISL,ioos:station:DISL:MHPA:1,2013-03-04T16:00:00Z,30.6671,-87.9365,13.26,1111122 
DISL,ioos:station:DISL:MHPA:1,2013-03-04T16:30:00Z,30.6671,-87.9365,13.35,1111122 
DISL,ioos:station:DISL:MHPA:1,2013-03-04T17:00:00Z,30.6671,-87.9365,13.5,1111122 
DISL,ioos:station:DISL:MHPA:1,2013-03-04T17:30:00Z,30.6671,-87.9365,13.41,1111122 
DISL,ioos:station:DISL:MHPA:1,2013-03-04T18:00:00Z,30.6671,-87.9365,13.34,1111122 
DISL,ioos:station:DISL:MHPA:1,2013-03-04T18:30:00Z,30.6671,-87.9365,13.66,1111122 
DISL,ioos:station:DISL:MHPA:1,2013-03-04T19:00:00Z,30.6671,-87.9365,13.83,1111122 
DISL,ioos:station:DISL:MHPA:1,2013-03-04T19:30:00Z,30.6671,-87.9365,14.04,1111122 
DISL,ioos:station:DISL:MHPA:1,2013-03-04T20:00:00Z,30.6671,-87.9365,14.7,1111122 
DISL,ioos:station:DISL:MHPA:1,2013-03-04T20:30:00Z,30.6671,-87.9365,15.46,1111122 
DISL,ioos:station:DISL:MHPA:1,2013-03-04T21:00:00Z,30.6671,-87.9365,15.75,1111122 
DISL,ioos:station:DISL:MHPA:1,2013-03-04T21:30:00Z,30.6671,-87.9365,15.7,1111122 
DISL,ioos:station:DISL:MHPA:1,2013-03-04T22:00:00Z,30.6671,-87.9365,15.87,1111122 
DISL,ioos:station:DISL:MHPA:1,2013-03-04T22:30:00Z,30.6671,-87.9365,15.86,1111122 
DISL,ioos:station:DISL:MHPA:1,2013-03-04T23:00:00Z,30.6671,-87.9365,16.15,1111122 
DISL,ioos:station:DISL:MHPA:1,2013-03-04T23:30:00Z,30.6671,-87.9365,16.03,1111122 
DISL,ioos:station:DISL:MHPA:1,2013-03-05T00:00:00Z,30.6671,-87.9365,15.99,1111122 
DISL,ioos:station:DISL:MHPA:1,2013-03-05T00:30:00Z,30.6671,-87.9365,15.75,1111122 
DISL,ioos:station:DISL:MHPA:1,2013-03-05T01:00:00Z,30.6671,-87.9365,15.63,1111122 
DISL,ioos:station:DISL:MHPA:1,2013-03-05T01:30:00Z,30.6671,-87.9365,15.64,1111122 
DISL,ioos:station:DISL:MHPA:1,2013-03-05T02:00:00Z,30.6671,-87.9365,15.55,1111122 
DISL,ioos:station:DISL:MHPA:1,2013-03-05T02:30:00Z,30.6671,-87.9365,15.53,1111122 
DISL,ioos:station:DISL:MHPA:1,2013-03-05T03:00:00Z,30.6671,-87.9365,15.52,1111122 
DISL,ioos:station:DISL:MHPA:1,2013-03-05T03:30:00Z,30.6671,-87.9365,15.63,1111122 
DISL,ioos:station:DISL:MHPA:1,2013-03-05T04:00:00Z,30.6671,-87.9365,16.02,1111122 
DISL,ioos:station:DISL:MHPA:1,2013-03-05T04:30:00Z,30.6671,-87.9365,16.06,1111122 
DISL,ioos:station:DISL:MHPA:1,2013-03-05T05:00:00Z,30.6671,-87.9365,15.88,1111122 
DISL,ioos:station:DISL:MHPA:1,2013-03-05T05:30:00Z,30.6671,-87.9365,15.62,1111122 
DISL,ioos:station:DISL:MHPA:1,2013-03-05T06:00:00Z,30.6671,-87.9365,14.95,1111122 
DISL,ioos:station:DISL:MHPA:1,2013-03-05T06:30:00Z,30.6671,-87.9365,15.2,1111122 
DISL,ioos:station:DISL:MHPA:1,2013-03-05T07:00:00Z,30.6671,-87.9365,14.95,1111122 
DISL,ioos:station:DISL:MHPA:1,2013-03-05T07:30:00Z,30.6671,-87.9365,14.65,1111122 
DISL,ioos:station:DISL:MHPA:1,2013-03-05T08:00:00Z,30.6671,-87.9365,14.49,1111122 
DISL,ioos:station:DISL:MHPA:1,2013-03-05T08:30:00Z,30.6671,-87.9365,14.4,1111122 
DISL,ioos:station:DISL:MHPA:1,2013-03-05T09:00:00Z,30.6671,-87.9365,14.35,1111122 
DISL,ioos:station:DISL:MHPA:1,2013-03-05T09:30:00Z,30.6671,-87.9365,14.57,1111122 
DISL,ioos:station:DISL:MHPA:1,2013-03-05T10:00:00Z,30.6671,-87.9365,14.84,1111122 
DISL,ioos:station:DISL:MHPA:1,2013-03-05T10:30:00Z,30.6671,-87.9365,15.08,1111122 
DISL,ioos:station:DISL:MHPA:1,2013-03-05T11:00:00Z,30.6671,-87.9365,15.18,1111122 
DISL,ioos:station:DISL:MHPA:1,2013-03-05T11:30:00Z,30.6671,-87.9365,14.88,1111122 
DISL,ioos:station:DISL:MHPA:1,2013-03-05T12:00:00Z,30.6671,-87.9365,14.51,1111122 
DISL,ioos:station:DISL:MHPA:1,2013-03-05T12:30:00Z,30.6671,-87.9365,14.63,1111122 
DISL,ioos:station:DISL:MHPA:1,2013-03-05T13:00:00Z,30.6671,-87.9365,15.01,1111122 
DISL,ioos:station:DISL:MHPA:1,2013-03-05T13:30:00Z,30.6671,-87.9365,15.5,1111122 
DISL,ioos:station:DISL:MHPA:1,2013-03-05T14:00:00Z,30.6671,-87.9365,15.61,1111122 
DISL,ioos:station:DISL:MHPA:1,2013-03-05T14:30:00Z,30.6671,-87.9365,15.21,1111122 
DISL,ioos:station:DISL:MHPA:1,2013-03-05T15:00:00Z,30.6671,-87.9365,14.9,1111122 
DISL,ioos:station:DISL:MHPA:1,2013-03-05T15:30:00Z,30.6671,-87.9365,15.89,1111122 
DISL,ioos:station:DISL:MHPA:1,2013-03-05T16:00:00Z,30.6671,-87.9365,16.27,1111122 
DISL,ioos:station:DISL:MHPA:1,2013-03-05T16:30:00Z,30.6671,-87.9365,16.18,1111122 
DISL,ioos:station:DISL:MHPA:1,2013-03-05T17:00:00Z,30.6671,-87.9365,15.58,1111122 
DISL,ioos:station:DISL:MHPA:1,2013-03-05T17:30:00Z,30.6671,-87.9365,16.12,1111122 
DISL,ioos:station:DISL:MHPA:1,2013-03-05T18:00:00Z,30.6671,-87.9365,15.68,1111122 
DISL,ioos:station:DISL:MHPA:1,2013-03-05T18:30:00Z,30.6671,-87.9365,16.27,1111122 
DISL,ioos:station:DISL:MHPA:1,2013-03-05T19:00:00Z,30.6671,-87.9365,16.47,1111122 
DISL,ioos:station:DISL:MHPA:1,2013-03-05T19:30:00Z,30.6671,-87.9365,17.95,1111122 
DISL,ioos:station:DISL:MHPA:1,2013-03-05T20:00:00Z,30.6671,-87.9365,17.71,1111122 
DISL,ioos:station:DISL:MHPA:1,2013-03-05T20:30:00Z,30.6671,-87.9365,17.55,1111122 
DISL,ioos:station:DISL:MHPA:1,2013-03-05T21:00:00Z,30.6671,-87.9365,17.04,1111122 
DISL,ioos:station:DISL:MHPA:1,2013-03-05T21:30:00Z,30.6671,-87.9365,17.33,1111122 
DISL,ioos:station:DISL:MHPA:1,2013-03-05T22:00:00Z,30.6671,-87.9365,17.4,1111122 
DISL,ioos:station:DISL:MHPA:1,2013-03-05T22:30:00Z,30.6671,-87.9365,17.12,1111122 
DISL,ioos:station:DISL:MHPA:1,2013-03-05T23:00:00Z,30.6671,-87.9365,17.66,1111122 
DISL,ioos:station:DISL:MHPA:1,2013-03-05T23:30:00Z,30.6671,-87.9365,19.92,1111122 
DISL,ioos:station:DISL:MHPA:1,2013-03-06T00:00:00Z,30.6671,-87.9365,18.82,1111122 
DISL,ioos:station:DISL:MHPA:1,2013-03-06T00:30:00Z,30.6671,-87.9365,17.72,1111122 
DISL,ioos:station:DISL:MHPA:1,2013-03-06T01:00:00Z,30.6671,-87.9365,16.91,1111122 
DISL,ioos:station:DISL:MHPA:1,2013-03-06T01:30:00Z,30.6671,-87.9365,15.88,1111122 
DISL,ioos:station:DISL:MHPA:1,2013-03-06T02:00:00Z,30.6671,-87.9365,14.8,1111122 
DISL,ioos:station:DISL:MHPA:1,2013-03-06T02:30:00Z,30.6671,-87.9365,13.81,1111122 
DISL,ioos:station:DISL:MHPA:1,2013-03-06T03:00:00Z,30.6671,-87.9365,12.86,1111122 
DISL,ioos:station:DISL:MHPA:1,2013-03-06T03:30:00Z,30.6671,-87.9365,12.22,1111122 
DISL,ioos:station:DISL:MHPA:1,2013-03-06T04:00:00Z,30.6671,-87.9365,11.78,1111122 
DISL,ioos:station:DISL:MHPA:1,2013-03-06T04:30:00Z,30.6671,-87.9365,11.23,1111122 
DISL,ioos:station:DISL:MHPA:1,2013-03-06T05:00:00Z,30.6671,-87.9365,10.77,1111122 
DISL,ioos:station:DISL:MHPA:1,2013-03-06T05:30:00Z,30.6671,-87.9365,10.36,1111122 
DISL,ioos:station:DISL:MHPA:1,2013-03-06T06:00:00Z,30.6671,-87.9365,10.01,1111122 
DISL,ioos:station:DISL:MHPA:1,2013-03-06T06:30:00Z,30.6671,-87.9365,9.98,1111122 
DISL,ioos:station:DISL:MHPA:1,2013-03-06T07:00:00Z,30.6671,-87.9365,9.62,1111122 
DISL,ioos:station:DISL:MHPA:1,2013-03-06T07:30:00Z,30.6671,-87.9365,9.85,1111122 
DISL,ioos:station:DISL:MHPA:1,2013-03-06T08:00:00Z,30.6671,-87.9365,8.98,1111122 
DISL,ioos:station:DISL:MHPA:1,2013-03-06T08:30:00Z,30.6671,-87.9365,8.72,1111122 
DISL,ioos:station:DISL:MHPA:1,2013-03-06T09:00:00Z,30.6671,-87.9365,8.15,1111122 
DISL,ioos:station:DISL:MHPA:1,2013-03-06T09:30:00Z,30.6671,-87.9365,7.94,1111122 
DISL,ioos:station:DISL:MHPA:1,2013-03-06T10:00:00Z,30.6671,-87.9365,7.53,1111122 
DISL,ioos:station:DISL:MHPA:1,2013-03-06T10:30:00Z,30.6671,-87.9365,7.2,1111122 
DISL,ioos:station:DISL:MHPA:1,2013-03-06T11:00:00Z,30.6671,-87.9365,6.756,1111122 
DISL,ioos:station:DISL:MHPA:1,2013-03-06T11:30:00Z,30.6671,-87.9365,6.312,1111122 
DISL,ioos:station:DISL:MHPA:1,2013-03-06T12:00:00Z,30.6671,-87.9365,5.792,1111122 
DISL,ioos:station:DISL:MHPA:1,2013-03-06T12:30:00Z,30.6671,-87.9365,5.37,1111122 
DISL,ioos:station:DISL:MHPA:1,2013-03-06T13:00:00Z,30.6671,-87.9365,5.697,1111122 
DISL,ioos:station:DISL:MHPA:1,2013-03-06T13:30:00Z,30.6671,-87.9365,6.091,1111122 
DISL,ioos:station:DISL:MHPA:1,2013-03-06T14:00:00Z,30.6671,-87.9365,6.418,1111122 
DISL,ioos:station:DISL:MHPA:1,2013-03-06T14:30:00Z,30.6671,-87.9365,7.08,1111122 
DISL,ioos:station:DISL:MHPA:1,2013-03-06T15:00:00Z,30.6671,-87.9365,7.44,1111122 
DISL,ioos:station:DISL:MHPA:1,2013-03-06T15:30:00Z,30.6671,-87.9365,8.07,1111122 
DISL,ioos:station:DISL:MHPA:1,2013-03-06T16:00:00Z,30.6671,-87.9365,8.65,1111122 
DISL,ioos:station:DISL:MHPA:1,2013-03-06T16:30:00Z,30.6671,-87.9365,9.35,1111122 
DISL,ioos:station:DISL:MHPA:1,2013-03-06T17:00:00Z,30.6671,-87.9365,10.06,1111122 
DISL,ioos:station:DISL:MHPA:1,2013-03-06T17:30:00Z,30.6671,-87.9365,10.57,1111122 
DISL,ioos:station:DISL:MHPA:1,2013-03-06T18:00:00Z,30.6671,-87.9365,11.16,1111122 
DISL,ioos:station:DISL:MHPA:1,2013-03-06T18:30:00Z,30.6671,-87.9365,12.17,1111122 
DISL,ioos:station:DISL:MHPA:1,2013-03-06T19:00:00Z,30.6671,-87.9365,12.57,1111122 
DISL,ioos:station:DISL:MHPA:1,2013-03-06T19:30:00Z,30.6671,-87.9365,13.12,1111122 
DISL,ioos:station:DISL:MHPA:1,2013-03-06T20:00:00Z,30.6671,-87.9365,13.46,1111122 
DISL,ioos:station:DISL:MHPA:1,2013-03-06T20:30:00Z,30.6671,-87.9365,14.04,1111122 
DISL,ioos:station:DISL:MHPA:1,2013-03-06T21:00:00Z,30.6671,-87.9365,13.89,1111122 
DISL,ioos:station:DISL:MHPA:1,2013-03-06T21:30:00Z,30.6671,-87.9365,14.31,1111122 
DISL,ioos:station:DISL:MHPA:1,2013-03-06T22:00:00Z,30.6671,-87.9365,14.46,1111122 
DISL,ioos:station:DISL:MHPA:1,2013-03-06T22:30:00Z,30.6671,-87.9365,14.38,1111122 
DISL,ioos:station:DISL:MHPA:1,2013-03-06T23:00:00Z,30.6671,-87.9365,14.07,1111122 
DISL,ioos:station:DISL:MHPA:1,2013-03-06T23:30:00Z,30.6671,-87.9365,13.38,1111122 
DISL,ioos:station:DISL:MHPA:1,2013-03-07T00:00:00Z,30.6671,-87.9365,12.34,1111122 